Portada
METAR-TAF:

METAR-TAF

Aeropuertos :

Tekamah Municipal Airport

Tekamah, Nebraska, Estados Unidos

latitud: 41-46-01N, longitud: 096-10-40W, altitud: 313 m

Observación

El informe se hizo hace 1 hora y 4 minutos, a las 04:54 UTC
Viento 15 kt del sur-sureste
Temperatura 28°C
Humedad 74%
Presión 1010 hPa
Visibilidad: 16.1 km
Cielo despejado

METAR: KTQE 070454Z AUTO 15015KT 10SM CLR 28/23 A2983 RMK AO2 SLP085 T02830233

Hora: 00:58 (05:58 UTC)


TAF: falta

Observaciones y pronósticos meteorológicos de más de 4000 aeropuertos (mensajes METAR y TAF).

Los puntos amarillos y rojos representan las estaciones disponibles.

Ponga el ratón en el punto deseado para ver el nombre de la estación.

Haga clic para ver las observaciones y los pronósticos meteorológicos.

Para cambiar el mapa : haga clic en los botones verdes con una cruz de color negro para hacer un zoom, en el botón verde con un guión para alejar o en las flechas verdes para mapas adyacentes.


METAR-TAF: